Time,TemperatureF,DewpointF,PressureIn,WindDirection,WindDirectionDegrees,WindSpeedMPH,WindSpeedGustMPH,Humidity,HourlyPrecipIn,Conditions,Clouds,dailyrainin,SolarRadiationWatts/m^2,SoftwareType,DateUTC
2013-03-29 00:02:00,44.5,35.7,30.29,ENE,74,0.6,2.3,71,0.00,CLR,,0.00,0.0,WeatherDisplay:10.37,2013-03-29 05:02:00,
2013-03-29 00:08:00,44.4,35.6,30.29,ENE,74,0.0,0.0,71,0.00,CLR,,0.00,0.0,WeatherDisplay:10.37,2013-03-29 05:08:00,
2013-03-29 00:13:00,44.2,35.4,30.29,ENE,74,0.0,0.0,71,0.00,SCT,,0.00,0.0,WeatherDisplay:10.37,2013-03-29 05:13:00,
2013-03-29 00:18:00,44.0,35.6,30.29,ENE,74,0.0,1.2,72,0.00,SCT,,0.00,0.0,WeatherDisplay:10.37,2013-03-29 05:18:00,
2013-03-29 00:24:00,43.8,35.4,30.30,ENE,74,0.0,0.0,72,0.00,SCT,,0.00,0.0,WeatherDisplay:10.37,2013-03-29 05:24:00,
2013-03-29 00:29:00,43.7,35.3,30.30,SE,132,0.0,0.0,72,0.00,SCT,,0.00,0.0,WeatherDisplay:10.37,2013-03-29 05:29:00,
2013-03-29 00:34:00,43.4,35.3,30.30,SE,132,0.0,0.0,73,0.00,SCT,,0.00,0.0,WeatherDisplay:10.37,2013-03-29 05:34:00,
2013-03-29 00:39:00,43.2,35.1,30.30,ESE,111,0.0,0.0,73,0.00,SCT,,0.00,0.0,WeatherDisplay:10.37,2013-03-29 05:39:00,
2013-03-29 00:45:00,43.0,35.3,30.30,SE,135,0.0,2.3,74,0.00,SCT,,0.00,0.0,WeatherDisplay:10.37,2013-03-29 05:45:00,
2013-03-29 00:50:00,42.8,35.1,30.30,East,96,0.0,0.0,74,0.00,SCT,,0.00,0.0,WeatherDisplay:10.37,2013-03-29 05:50:00,
2013-03-29 00:55:00,42.7,35.3,30.30,East,96,0.2,1.2,75,0.00,SCT,,0.00,0.0,WeatherDisplay:10.37,2013-03-29 05:55:00,
2013-03-29 01:00:00,42.5,35.1,30.30,East,98,0.5,2.0,75,0.00,SCT,,0.00,0.0,WeatherDisplay:10.37,2013-03-29 06:00:00,
2013-03-29 01:06:00,42.3,35.3,30.30,SSE,148,0.3,1.0,76,0.00,SCT,,0.00,0.0,WeatherDisplay:10.37,2013-03-29 06:06:00,
2013-03-29 01:11:00,42.2,35.2,30.30,ESE,123,0.0,0.0,76,0.00,SCT,,0.00,0.0,WeatherDisplay:10.37,2013-03-29 06:11:00,
2013-03-29 01:16:00,42.0,35.0,30.30,ESE,123,0.0,0.0,76,0.00,SCT,,0.00,0.0,WeatherDisplay:10.37,2013-03-29 06:16:00,
2013-03-29 01:22:00,41.7,34.7,30.30,ESE,123,0.0,0.0,76,0.00,SCT,SCT,0.00,0.0,WeatherDisplay:10.37,2013-03-29 06:22:00,
2013-03-29 01:27:00,41.5,34.8,30.30,ESE,123,0.0,0.0,77,0.00,SCT,,0.00,0.0,WeatherDisplay:10.37,2013-03-29 06:27:00,
2013-03-29 01:32:00,41.3,35.0,30.30,ESE,123,0.0,0.0,78,0.00,SCT,,0.00,0.0,WeatherDisplay:10.37,2013-03-29 06:32:00,
2013-03-29 01:37:00,41.0,34.7,30.30,ESE,123,0.0,0.0,78,0.00,SCT,,0.00,0.0,WeatherDisplay:10.37,2013-03-29 06:37:00,
2013-03-29 01:42:00,40.7,34.4,30.30,ESE,123,0.0,0.0,78,0.00,SCT,,0.00,0.0,WeatherDisplay:10.37,2013-03-29 06:42:00,
2013-03-29 01:48:00,40.4,34.4,30.30,ESE,123,0.0,0.0,79,0.00,SCT,,0.00,0.0,WeatherDisplay:10.37,2013-03-29 06:48:00,
2013-03-29 01:53:00,40.1,34.1,30.30,ESE,123,0.0,0.0,79,0.00,SCT,,0.00,0.0,WeatherDisplay:10.37,2013-03-29 06:53:00,
2013-03-29 01:58:00,39.8,34.1,30.30,ESE,123,0.0,0.0,80,0.00,SCT,,0.00,0.0,WeatherDisplay:10.37,2013-03-29 06:58:00,
2013-03-29 02:03:00,39.5,33.8,30.29,ESE,123,0.0,0.0,80,0.00,SCT,,0.00,0.0,WeatherDisplay:10.37,2013-03-29 07:03:00,
2013-03-29 02:09:00,39.3,34.0,30.29,ESE,123,0.0,0.0,81,0.00,SCT,,0.00,0.0,WeatherDisplay:10.37,2013-03-29 07:09:00,
2013-03-29 02:14:00,39.0,33.7,30.30,ESE,123,0.0,0.0,81,0.00,SCT,,0.00,0.0,WeatherDisplay:10.37,2013-03-29 07:14:00,
2013-03-29 02:19:00,38.8,33.8,30.30,ESE,123,0.0,0.0,82,0.00,SCT,,0.00,0.0,WeatherDisplay:10.37,2013-03-29 07:19:00,
2013-03-29 02:24:00,38.6,33.6,30.29,ESE,123,0.0,0.0,82,0.00,SCT,,0.00,0.0,WeatherDisplay:10.37,2013-03-29 07:24:00,
2013-03-29 02:30:00,38.4,33.4,30.29,ESE,123,0.0,0.0,82,0.00,SCT,,0.00,0.0,WeatherDisplay:10.37,2013-03-29 07:30:00,
2013-03-29 02:35:00,38.3,33.6,30.29,ESE,123,0.0,0.0,83,0.00,SCT,,0.00,0.0,WeatherDisplay:10.37,2013-03-29 07:35:00,
2013-03-29 02:40:00,38.1,33.4,30.29,ESE,123,0.0,0.0,83,0.00,SCT,,0.00,0.0,WeatherDisplay:10.37,2013-03-29 07:40:00,
2013-03-29 02:45:00,38.0,33.3,30.29,ESE,123,0.0,0.0,83,0.00,SCT,,0.00,0.0,WeatherDisplay:10.37,2013-03-29 07:45:00,
2013-03-29 02:51:00,37.9,33.5,30.28,ESE,123,0.0,0.0,84,0.00,SCT,,0.00,0.0,WeatherDisplay:10.37,2013-03-29 07:51:00,
2013-03-29 02:56:00,37.8,33.4,30.28,ESE,123,0.0,0.0,84,0.00,SCT,,0.00,0.0,WeatherDisplay:10.37,2013-03-29 07:56:00,
2013-03-29 03:01:00,37.8,33.4,30.28,ESE,123,0.0,0.0,84,0.00,SCT,,0.00,0.0,WeatherDisplay:10.37,2013-03-29 08:01:00,
2013-03-29 03:06:00,37.7,33.3,30.28,ESE,123,0.0,0.0,84,0.00,SCT,,0.00,0.0,WeatherDisplay:10.37,2013-03-29 08:06:00,
2013-03-29 03:12:00,37.6,33.5,30.28,ESE,123,0.0,0.0,85,0.00,SCT,,0.00,0.0,WeatherDisplay:10.37,2013-03-29 08:12:00,
2013-03-29 03:17:00,37.5,33.4,30.28,ESE,123,0.0,0.0,85,0.00,SCT,,0.00,0.0,WeatherDisplay:10.37,2013-03-29 08:17:00,
2013-03-29 03:22:00,37.3,33.2,30.27,ESE,123,0.0,0.0,85,0.00,SCT,,0.00,0.0,WeatherDisplay:10.37,2013-03-29 08:22:00,
2013-03-29 03:27:00,37.3,33.2,30.27,ESE,123,0.0,0.0,85,0.00,SCT,,0.00,0.0,WeatherDisplay:10.37,2013-03-29 08:27:00,
2013-03-29 03:33:00,37.3,33.2,30.27,ESE,123,0.0,0.0,85,0.00,SCT,,0.00,0.0,WeatherDisplay:10.37,2013-03-29 08:33:00,
2013-03-29 03:38:00,37.2,33.1,30.27,ESE,123,0.0,0.0,85,0.00,SCT,,0.00,0.0,WeatherDisplay:10.37,2013-03-29 08:38:00,
2013-03-29 03:43:00,37.0,32.9,30.27,ESE,123,0.0,0.0,85,0.00,SCT,,0.00,0.0,WeatherDisplay:10.37,2013-03-29 08:43:00,
2013-03-29 03:48:00,36.8,33.0,30.27,ESE,123,0.0,0.0,86,0.00,SCT,,0.00,0.0,WeatherDisplay:10.37,2013-03-29 08:48:00,
2013-03-29 03:54:00,36.6,32.8,30.27,ESE,123,0.0,0.0,86,0.00,SCT,,0.00,0.0,WeatherDisplay:10.37,2013-03-29 08:54:00,
2013-03-29 03:59:00,36.4,32.6,30.27,ESE,123,0.0,0.0,86,0.00,SCT,,0.00,0.0,WeatherDisplay:10.37,2013-03-29 08:59:00,
2013-03-29 04:04:00,36.1,32.3,30.27,ESE,123,0.0,0.0,86,0.00,SCT,,0.00,0.0,WeatherDisplay:10.37,2013-03-29 09:04:00,
2013-03-29 04:09:00,36.0,32.5,30.26,ESE,123,0.0,0.0,87,0.00,SCT,,0.00,0.0,WeatherDisplay:10.37,2013-03-29 09:09:00,
2013-03-29 04:15:00,35.9,32.7,30.26,ESE,123,0.0,0.0,88,0.00,SCT,,0.00,0.0,WeatherDisplay:10.37,2013-03-29 09:15:00,
2013-03-29 04:20:00,35.8,32.6,30.26,ESE,123,0.0,0.0,88,0.00,SCT,,0.00,0.0,WeatherDisplay:10.37,2013-03-29 09:20:00,
2013-03-29 04:25:00,35.8,32.6,30.26,ESE,123,0.0,0.0,88,0.00,SCT,,0.00,0.0,WeatherDisplay:10.37,2013-03-29 09:25:00,
2013-03-29 04:30:00,35.7,32.5,30.27,ESE,123,0.0,0.0,88,0.00,SCT,,0.00,0.0,WeatherDisplay:10.37,2013-03-29 09:30:00,
2013-03-29 04:36:00,35.7,32.5,30.26,ESE,123,0.0,0.0,88,0.00,SCT,,0.00,0.0,WeatherDisplay:10.37,2013-03-29 09:36:00,
2013-03-29 04:41:00,35.5,32.3,30.26,ESE,123,0.0,0.0,88,0.00,SCT,,0.00,0.0,WeatherDisplay:10.37,2013-03-29 09:41:00,
2013-03-29 04:47:00,35.3,32.1,30.26,ESE,123,0.0,0.0,88,0.00,SCT,,0.00,0.0,WeatherDisplay:10.37,2013-03-29 09:47:00,
2013-03-29 04:52:00,35.1,31.9,30.27,ESE,123,0.0,0.0,88,0.00,SCT,SCT,0.00,0.0,WeatherDisplay:10.37,2013-03-29 09:52:00,
2013-03-29 04:57:00,35.0,31.8,30.27,ESE,123,0.0,0.0,88,0.00,SCT,SCT,0.00,0.0,WeatherDisplay:10.37,2013-03-29 09:57:00,
2013-03-29 05:02:00,35.0,32.1,30.27,ESE,123,0.0,0.0,89,0.00,SCT,SCT,0.00,0.0,WeatherDisplay:10.37,2013-03-29 10:02:00,
2013-03-29 05:07:00,35.1,32.2,30.27,ESE,123,0.0,0.0,89,0.00,SCT,,0.00,0.0,WeatherDisplay:10.37,2013-03-29 10:07:00,
2013-03-29 05:12:00,35.1,32.2,30.27,ESE,123,0.0,0.0,89,0.00,SCT,SCT,0.00,0.0,WeatherDisplay:10.37,2013-03-29 10:12:00,
2013-03-29 05:17:00,35.1,32.2,30.27,ESE,123,0.0,0.0,89,0.00,SCT,SCT,0.00,0.0,WeatherDisplay:10.37,2013-03-29 10:17:00,
2013-03-29 05:22:00,35.0,32.1,30.27,ESE,123,0.0,0.0,89,0.00,SCT,,0.00,0.0,WeatherDisplay:10.37,2013-03-29 10:22:00,
2013-03-29 05:27:00,34.8,31.9,30.27,ESE,123,0.0,0.0,89,0.00,SCT,,0.00,0.0,WeatherDisplay:10.37,2013-03-29 10:27:00,
2013-03-29 05:32:00,34.7,31.8,30.27,ESE,123,0.0,0.0,89,0.00,SCT,,0.00,0.0,WeatherDisplay:10.37,2013-03-29 10:32:00,
2013-03-29 05:37:00,34.6,31.7,30.27,ESE,123,0.0,0.0,89,0.00,SCT,,0.00,0.0,WeatherDisplay:10.37,2013-03-29 10:37:00,
2013-03-29 05:42:00,34.5,31.9,30.27,ESE,123,0.0,0.0,90,0.00,SCT,,0.00,0.0,WeatherDisplay:10.37,2013-03-29 10:42:00,
2013-03-29 05:48:00,34.5,31.9,30.27,ESE,123,0.0,0.0,90,0.00,SCT,,0.00,0.0,WeatherDisplay:10.37,2013-03-29 10:48:00,
2013-03-29 05:53:00,34.4,31.8,30.27,ESE,123,0.0,0.0,90,0.00,SCT,,0.00,0.0,WeatherDisplay:10.37,2013-03-29 10:53:00,
2013-03-29 05:58:00,34.2,31.6,30.28,ESE,123,0.0,0.0,90,0.00,SCT,,0.00,0.0,WeatherDisplay:10.37,2013-03-29 10:58:00,
2013-03-29 06:03:00,34.1,31.5,30.28,ESE,123,0.0,0.0,90,0.00,SCT,,0.00,0.0,WeatherDisplay:10.37,2013-03-29 11:03:00,
2013-03-29 06:08:00,34.0,31.4,30.28,ESE,123,0.0,0.0,90,0.00,SCT,,0.00,0.0,WeatherDisplay:10.37,2013-03-29 11:08:00,
2013-03-29 06:14:00,33.9,31.3,30.28,ESE,123,0.0,0.0,90,0.00,SCT,,0.00,0.0,WeatherDisplay:10.37,2013-03-29 11:14:00,
2013-03-29 06:19:00,33.9,31.6,30.28,ESE,123,0.0,0.0,91,0.00,SCT,,0.00,0.0,WeatherDisplay:10.37,2013-03-29 11:19:00,
2013-03-29 06:24:00,33.9,31.6,30.28,ESE,123,0.0,0.0,91,0.00,SCT,,0.00,0.0,WeatherDisplay:10.37,2013-03-29 11:24:00,
2013-03-29 06:29:00,33.9,31.6,30.28,ESE,123,0.0,0.0,91,0.00,CLR,,0.00,0.0,WeatherDisplay:10.37,2013-03-29 11:29:00,
2013-03-29 06:35:00,33.7,31.4,30.28,ESE,123,0.0,0.0,91,0.00,SCT,,0.00,0.0,WeatherDisplay:10.37,2013-03-29 11:35:00,
2013-03-29 06:40:00,33.6,31.3,30.28,ESE,123,0.0,0.0,91,0.00,SCT,,0.00,0.0,WeatherDisplay:10.37,2013-03-29 11:40:00,
2013-03-29 06:45:00,33.6,31.3,30.28,ESE,123,0.0,0.0,91,0.00,SCT,,0.00,0.0,WeatherDisplay:10.37,2013-03-29 11:45:00,
2013-03-29 06:50:00,33.6,31.3,30.28,ESE,123,0.0,0.0,91,0.00,SCT,,0.00,0.0,WeatherDisplay:10.37,2013-03-29 11:50:00,
2013-03-29 06:56:00,33.7,31.4,30.28,ESE,123,0.0,0.0,91,0.00,SCT,,0.00,0.0,WeatherDisplay:10.37,2013-03-29 11:56:00,
2013-03-29 07:01:00,33.9,31.6,30.28,ESE,123,0.0,0.0,91,0.00,SCT,,0.00,0.0,WeatherDisplay:10.37,2013-03-29 12:01:00,
2013-03-29 07:07:00,34.0,31.7,30.28,ESE,123,0.0,0.0,91,0.00,SCT,SCT,0.00,7.0,WeatherDisplay:10.37,2013-03-29 12:07:00,
2013-03-29 07:12:00,34.0,31.7,30.28,ESE,123,0.0,0.0,91,0.00,SCT,SCT,0.00,9.8,WeatherDisplay:10.37,2013-03-29 12:12:00,
2013-03-29 07:17:00,34.0,31.6,30.29,ESE,123,0.0,0.0,91,0.00,SCT,SCT,0.00,15.4,WeatherDisplay:10.37,2013-03-29 12:17:00,
2013-03-29 07:22:00,33.9,31.6,30.29,ESE,123,0.0,0.0,91,0.00,SCT,,0.00,19.6,WeatherDisplay:10.37,2013-03-29 12:22:00,
2013-03-29 07:27:00,33.9,31.6,30.30,ESE,123,0.0,0.0,91,0.00,SCT,SCT,0.00,25.2,WeatherDisplay:10.37,2013-03-29 12:27:00,
2013-03-29 07:32:00,33.9,31.6,30.30,ESE,123,0.0,0.0,91,0.00,SCT,,0.00,26.6,WeatherDisplay:10.37,2013-03-29 12:32:00,
2013-03-29 07:37:00,33.8,31.5,30.30,ESE,123,0.0,0.0,91,0.00,SCT,,0.00,32.2,WeatherDisplay:10.37,2013-03-29 12:37:00,
2013-03-29 07:42:00,33.9,31.6,30.30,ESE,123,0.0,0.0,91,0.00,SCT,,0.00,36.4,WeatherDisplay:10.37,2013-03-29 12:42:00,
2013-03-29 07:48:00,34.0,31.9,30.30,ESE,123,0.0,0.0,92,0.00,SCT,,0.00,44.8,WeatherDisplay:10.37,2013-03-29 12:48:00,
2013-03-29 07:53:00,34.3,32.2,30.30,ESE,123,0.0,0.0,92,0.00,SCT,,0.00,58.8,WeatherDisplay:10.37,2013-03-29 12:53:00,
2013-03-29 07:58:00,34.7,32.6,30.31,ESE,123,0.0,0.0,92,0.00,SCT,,0.00,56.0,WeatherDisplay:10.37,2013-03-29 12:58:00,
2013-03-29 08:03:00,35.4,33.3,30.31,ESE,123,0.0,0.0,92,0.00,SCT,,0.00,81.2,WeatherDisplay:10.37,2013-03-29 13:03:00,
2013-03-29 08:09:00,35.9,33.5,30.31,ESE,123,0.0,0.0,91,0.00,SCT,,0.00,172.2,WeatherDisplay:10.37,2013-03-29 13:09:00,
2013-03-29 08:14:00,36.4,34.0,30.31,ESE,123,0.0,0.0,91,0.00,SCT,,0.00,130.2,WeatherDisplay:10.37,2013-03-29 13:14:00,
2013-03-29 08:19:00,37.0,34.3,30.30,ENE,69,0.4,2.3,90,0.00,SCT,,0.00,65.8,WeatherDisplay:10.37,2013-03-29 13:19:00,
2013-03-29 08:24:00,37.6,34.4,30.30,NE,48,1.3,2.3,88,0.00,SCT,,0.00,91.0,WeatherDisplay:10.37,2013-03-29 13:24:00,
2013-03-29 08:30:00,38.2,34.4,30.30,NE,48,0.0,0.0,86,0.00,SCT,,0.00,106.4,WeatherDisplay:10.37,2013-03-29 13:30:00,
2013-03-29 08:35:00,38.9,34.8,30.30,NE,48,0.3,2.3,85,0.00,SCT,,0.00,103.6,WeatherDisplay:10.37,2013-03-29 13:35:00,
2013-03-29 08:40:00,39.6,34.9,30.31,ESE,106,0.6,2.3,83,0.00,SCT,,0.00,65.8,WeatherDisplay:10.37,2013-03-29 13:40:00,
2013-03-29 08:45:00,40.2,34.5,30.30,NE,55,0.0,1.0,80,0.00,SCT,,0.00,65.8,WeatherDisplay:10.37,2013-03-29 13:45:00,
2013-03-29 08:51:00,40.8,34.8,30.31,East,79,0.9,2.0,79,0.00,SCT,,0.00,189.0,WeatherDisplay:10.37,2013-03-29 13:51:00,
2013-03-29 08:56:00,41.5,34.8,30.31,ESE,120,0.0,2.3,77,0.00,SCT,,0.00,113.4,WeatherDisplay:10.37,2013-03-29 13:56:00,
2013-03-29 09:01:00,42.0,35.0,30.31,SE,128,2.8,3.5,76,0.00,SCT,,0.00,120.4,WeatherDisplay:10.37,2013-03-29 14:01:00,
2013-03-29 09:07:00,42.2,34.5,30.31,ESE,111,1.0,6.0,74,0.00,SCT,SCT,0.00,78.4,WeatherDisplay:10.37,2013-03-29 14:07:00,
2013-03-29 09:12:00,42.3,35.0,30.31,East,84,0.0,3.0,75,0.00,SCT,SCT,0.00,282.8,WeatherDisplay:10.37,2013-03-29 14:12:00,
2013-03-29 09:17:00,42.6,34.9,30.31,ENE,70,1.0,3.0,74,0.00,SCT,SCT,0.00,317.8,WeatherDisplay:10.37,2013-03-29 14:17:00,
2013-03-29 09:22:00,43.0,35.3,30.31,East,100,1.0,5.0,74,0.00,SCT,SCT,0.00,425.6,WeatherDisplay:10.37,2013-03-29 14:22:00,
2013-03-29 09:27:00,43.4,35.0,30.31,ENE,69,1.2,3.5,72,0.00,SCT,,0.00,389.2,WeatherDisplay:10.37,2013-03-29 14:27:00,
2013-03-29 09:32:00,43.8,35.0,30.31,ESE,113,3.0,3.5,71,0.00,SCT,,0.00,110.6,WeatherDisplay:10.37,2013-03-29 14:32:00,
2013-03-29 09:37:00,43.8,35.0,30.31,SE,136,0.3,1.2,71,0.00,SCT,,0.00,88.2,WeatherDisplay:10.37,2013-03-29 14:37:00,
2013-03-29 09:42:00,44.3,35.5,30.32,SE,128,0.0,2.3,71,0.00,SCT,,0.00,179.2,WeatherDisplay:10.37,2013-03-29 14:42:00,
2013-03-29 09:48:00,44.6,35.4,30.31,NE,38,0.9,2.3,70,0.00,SCT,,0.00,259.0,WeatherDisplay:10.37,2013-03-29 14:48:00,
2013-03-29 09:53:00,45.1,35.9,30.31,East,101,2.1,3.5,70,0.00,SCT,,0.00,275.8,WeatherDisplay:10.37,2013-03-29 14:53:00,
2013-03-29 09:58:00,45.6,36.0,30.31,ESE,113,1.4,3.5,69,0.00,SCT,,0.00,263.2,WeatherDisplay:10.37,2013-03-29 14:58:00,
2013-03-29 10:03:00,46.0,36.4,30.31,ENE,74,1.7,3.5,69,0.00,SCT,,0.00,359.8,WeatherDisplay:10.37,2013-03-29 15:03:00,
2013-03-29 10:09:00,46.4,36.4,30.31,East,79,1.9,3.5,68,0.00,SCT,,0.00,158.2,WeatherDisplay:10.37,2013-03-29 15:09:00,
2013-03-29 10:14:00,47.0,37.0,30.31,East,79,0.0,0.0,68,0.00,SCT,,0.00,211.4,WeatherDisplay:10.37,2013-03-29 15:14:00,
2013-03-29 10:19:00,47.6,37.2,30.31,ESE,115,2.2,3.5,67,0.00,SCT,,0.00,208.6,WeatherDisplay:10.37,2013-03-29 15:19:00,
2013-03-29 10:24:00,48.2,37.8,30.31,SE,141,1.6,5.8,67,0.00,SCT,,0.00,694.4,WeatherDisplay:10.37,2013-03-29 15:24:00,
2013-03-29 10:30:00,48.9,38.0,30.30,ESE,106,1.0,5.8,66,0.00,SCT,,0.00,695.8,WeatherDisplay:10.37,2013-03-29 15:30:00,
2013-03-29 10:35:00,49.3,37.6,30.31,ENE,76,2.8,5.8,64,0.00,SCT,,0.00,432.6,WeatherDisplay:10.37,2013-03-29 15:35:00,
2013-03-29 10:40:00,49.4,38.5,30.31,SE,126,1.2,5.0,66,0.00,SCT,,0.00,340.2,WeatherDisplay:10.37,2013-03-29 15:40:00,
2013-03-29 10:45:00,49.7,37.6,30.31,ESE,105,1.6,8.0,63,0.00,SCT,,0.00,827.4,WeatherDisplay:10.37,2013-03-29 15:45:00,
2013-03-29 10:51:00,50.2,38.5,30.31,ENE,77,2.6,5.0,64,0.00,SCT,,0.00,788.2,WeatherDisplay:10.37,2013-03-29 15:51:00,
2013-03-29 10:56:00,50.7,38.1,30.31,ESE,108,1.3,3.5,62,0.00,SCT,,0.00,546.0,WeatherDisplay:10.37,2013-03-29 15:56:00,
2013-03-29 11:01:00,51.0,38.4,30.31,ESE,118,3.1,4.0,62,0.00,SCT,,0.00,837.2,WeatherDisplay:10.37,2013-03-29 16:01:00,
2013-03-29 11:07:00,51.7,38.7,30.31,East,88,1.6,3.0,61,0.00,SCT,,0.00,610.4,WeatherDisplay:10.37,2013-03-29 16:07:00,
2013-03-29 11:12:00,51.5,38.5,30.31,ESE,110,3.0,7.0,61,0.00,SCT,SCT,0.00,971.6,WeatherDisplay:10.37,2013-03-29 16:12:00,
2013-03-29 11:17:00,52.1,38.2,30.31,ESE,104,3.0,10.0,59,0.00,SCT,SCT,0.00,996.8,WeatherDisplay:10.37,2013-03-29 16:17:00,
2013-03-29 11:22:00,52.2,37.9,30.30,East,99,3.0,10.0,58,0.00,SCT,SCT,0.00,1010.8,WeatherDisplay:10.37,2013-03-29 16:22:00,
2013-03-29 11:27:00,52.6,38.2,30.30,ESE,110,1.0,5.0,58,0.00,SCT,SCT,0.00,1023.4,WeatherDisplay:10.37,2013-03-29 16:27:00,
2013-03-29 11:32:00,53.1,38.7,30.30,ESE,120,2.0,10.0,58,0.00,SCT,SCT,0.00,1038.8,WeatherDisplay:10.37,2013-03-29 16:32:00,
2013-03-29 11:37:00,53.0,38.2,30.30,ESE,115,3.8,9.0,57,0.00,SCT,,0.00,1051.4,WeatherDisplay:10.37,2013-03-29 16:37:00,
2013-03-29 11:42:00,53.0,38.6,30.30,East,101,1.4,3.5,58,0.00,SCT,,0.00,1058.4,WeatherDisplay:10.37,2013-03-29 16:42:00,
2013-03-29 11:47:00,53.5,38.2,30.30,East,84,1.0,3.5,56,0.00,SCT,,0.00,1071.0,WeatherDisplay:10.37,2013-03-29 16:47:00,
2013-03-29 11:52:00,54.2,38.8,30.30,SE,136,2.3,5.8,56,0.00,SCT,,0.00,1082.2,WeatherDisplay:10.37,2013-03-29 16:52:00,
2013-03-29 11:58:00,55.1,38.7,30.30,ESE,105,2.2,2.3,54,0.00,SCT,,0.00,1097.6,WeatherDisplay:10.37,2013-03-29 16:58:00,
2013-03-29 12:03:00,55.2,38.8,30.30,South,170,0.5,2.3,54,0.00,SCT,,0.00,1097.6,WeatherDisplay:10.37,2013-03-29 17:03:00,
2013-03-29 12:08:00,55.4,38.5,30.30,SE,129,3.6,6.9,53,0.00,SCT,,0.00,1117.2,WeatherDisplay:10.37,2013-03-29 17:08:00,
2013-03-29 12:13:00,55.5,38.6,30.30,ESE,106,4.0,11.5,53,0.00,SCT,,0.00,1127.0,WeatherDisplay:10.37,2013-03-29 17:13:00,
2013-03-29 12:19:00,55.6,37.2,30.30,SE,132,3.3,8.1,50,0.00,SCT,,0.00,1132.6,WeatherDisplay:10.37,2013-03-29 17:19:00,
2013-03-29 12:24:00,55.0,37.7,30.29,ESE,118,4.1,6.9,52,0.00,SCT,,0.00,1136.8,WeatherDisplay:10.37,2013-03-29 17:24:00,
2013-03-29 12:29:00,55.9,39.0,30.29,ENE,70,1.0,3.5,53,0.00,SCT,,0.00,1142.4,WeatherDisplay:10.37,2013-03-29 17:29:00,
2013-03-29 12:34:00,56.0,37.6,30.29,NNE,26,4.5,8.1,50,0.00,SCT,,0.00,1152.2,WeatherDisplay:10.37,2013-03-29 17:34:00,
2013-03-29 12:40:00,56.5,37.6,30.29,East,94,1.1,3.5,49,0.00,SCT,,0.00,1159.2,WeatherDisplay:10.37,2013-03-29 17:40:00,
2013-03-29 12:45:00,56.3,37.9,30.29,ENE,67,2.7,6.0,50,0.00,SCT,,0.00,1162.0,WeatherDisplay:10.37,2013-03-29 17:45:00,
2013-03-29 12:50:00,56.6,37.6,30.28,ESE,107,1.9,5.8,49,0.00,SCT,,0.00,1163.4,WeatherDisplay:10.37,2013-03-29 17:50:00,
2013-03-29 12:55:00,57.1,38.1,30.28,SE,137,2.0,3.5,49,0.00,SCT,,0.00,1163.4,WeatherDisplay:10.37,2013-03-29 17:55:00,
2013-03-29 13:01:00,56.7,38.3,30.28,NE,43,2.7,3.5,50,0.00,SCT,,0.00,1163.4,WeatherDisplay:10.37,2013-03-29 18:01:00,
2013-03-29 13:07:00,57.1,37.6,30.28,SE,128,1.5,3.5,48,0.00,SCT,,0.00,1169.0,WeatherDisplay:10.37,2013-03-29 18:07:00,
2013-03-29 13:12:00,57.8,37.7,30.28,NNE,23,3.2,4.6,47,0.00,SCT,,0.00,1171.8,WeatherDisplay:10.37,2013-03-29 18:12:00,
2013-03-29 13:17:00,58.0,37.9,30.27,East,84,3.4,4.6,47,0.00,SCT,,0.00,1173.2,WeatherDisplay:10.37,2013-03-29 18:17:00,
2013-03-29 13:22:00,58.6,39.5,30.27,NNE,17,0.2,3.5,49,0.00,SCT,,0.00,1171.8,WeatherDisplay:10.37,2013-03-29 18:22:00,
2013-03-29 13:28:00,58.4,37.7,30.27,East,88,4.0,9.2,46,0.00,SCT,,0.00,1169.0,WeatherDisplay:10.37,2013-03-29 18:28:00,
2013-03-29 13:33:00,58.4,38.2,30.27,ESE,111,1.0,3.5,47,0.00,SCT,,0.00,1163.4,WeatherDisplay:10.37,2013-03-29 18:33:00,
2013-03-29 13:38:00,59.1,37.8,30.26,ENE,69,3.2,6.0,45,0.00,SCT,,0.00,1169.0,WeatherDisplay:10.37,2013-03-29 18:38:00,
2013-03-29 13:43:00,58.8,36.9,30.26,ENE,75,3.1,8.0,44,0.00,SCT,,0.00,1169.0,WeatherDisplay:10.37,2013-03-29 18:43:00,
2013-03-29 13:49:00,58.7,38.0,30.26,SE,138,2.2,6.9,46,0.00,SCT,,0.00,1146.6,WeatherDisplay:10.37,2013-03-29 18:49:00,
2013-03-29 13:54:00,60.4,38.4,30.25,SE,129,3.0,4.6,44,0.00,SCT,,0.00,1156.4,WeatherDisplay:10.37,2013-03-29 18:54:00,
2013-03-29 13:59:00,60.1,37.5,30.25,SSE,147,1.2,3.0,43,0.00,SCT,,0.00,1143.8,WeatherDisplay:10.37,2013-03-29 18:59:00,
2013-03-29 14:04:00,60.0,37.4,30.25,NNE,26,3.7,8.1,43,0.00,SCT,,0.00,1134.0,WeatherDisplay:10.37,2013-03-29 19:04:00,
2013-03-29 14:10:00,60.3,38.9,30.25,ESE,112,1.8,3.0,45,0.00,SCT,,0.00,1136.8,WeatherDisplay:10.37,2013-03-29 19:10:00,
2013-03-29 14:15:00,60.2,37.6,30.25,NE,42,1.8,9.0,43,0.00,SCT,,0.00,1120.0,WeatherDisplay:10.37,2013-03-29 19:15:00,
2013-03-29 14:20:00,60.0,37.4,30.25,SE,127,1.5,8.1,43,0.00,SCT,,0.00,1127.0,WeatherDisplay:10.37,2013-03-29 19:20:00,
2013-03-29 14:25:00,60.6,37.4,30.24,SSE,165,2.7,9.2,42,0.00,SCT,,0.00,1113.0,WeatherDisplay:10.37,2013-03-29 19:25:00,
2013-03-29 14:31:00,60.9,36.4,30.24,ENE,78,4.4,10.4,40,0.00,SCT,,0.00,1120.0,WeatherDisplay:10.37,2013-03-29 19:31:00,
2013-03-29 14:36:00,60.5,37.9,30.24,South,184,1.0,3.5,43,0.00,SCT,,0.00,1100.4,WeatherDisplay:10.37,2013-03-29 19:36:00,
2013-03-29 14:41:00,61.2,37.9,30.24,SE,133,2.9,9.2,42,0.00,SCT,,0.00,1097.6,WeatherDisplay:10.37,2013-03-29 19:41:00,
2013-03-29 14:46:00,60.7,37.5,30.23,NE,40,1.8,5.0,42,0.00,SCT,,0.00,1085.0,WeatherDisplay:10.37,2013-03-29 19:46:00,
2013-03-29 14:52:00,61.3,38.0,30.23,ESE,111,1.0,10.0,42,0.00,SCT,SCT,0.00,1071.0,WeatherDisplay:10.37,2013-03-29 19:52:00,
2013-03-29 14:57:00,61.2,37.3,30.23,East,81,3.0,6.0,41,0.00,SCT,SCT,0.00,1058.4,WeatherDisplay:10.37,2013-03-29 19:57:00,
2013-03-29 15:02:00,61.5,36.9,30.23,ENE,58,5.0,10.0,40,0.00,SCT,SCT,0.00,837.2,WeatherDisplay:10.37,2013-03-29 20:02:00,
2013-03-29 15:07:00,62.0,37.4,30.22,ENE,61,5.0,13.0,40,0.00,SCT,SCT,0.00,863.8,WeatherDisplay:10.37,2013-03-29 20:07:00,
2013-03-29 15:12:00,61.6,37.0,30.22,East,98,3.0,12.0,40,0.00,SCT,SCT,0.00,1013.6,WeatherDisplay:10.37,2013-03-29 20:12:00,
2013-03-29 15:17:00,62.1,36.8,30.22,East,82,0.2,3.5,39,0.00,SCT,,0.00,669.2,WeatherDisplay:10.37,2013-03-29 20:17:00,
2013-03-29 15:22:00,62.2,38.8,30.21,East,94,2.0,7.0,42,0.00,SCT,SCT,0.00,737.8,WeatherDisplay:10.37,2013-03-29 20:22:00,
2013-03-29 15:27:00,62.3,37.7,30.21,SE,141,2.9,8.0,40,0.00,SCT,,0.00,981.4,WeatherDisplay:10.37,2013-03-29 20:27:00,
2013-03-29 15:32:00,62.7,36.0,30.21,ENE,65,2.3,4.6,37,0.00,SCT,,0.00,954.8,WeatherDisplay:10.37,2013-03-29 20:32:00,
2013-03-29 15:38:00,62.1,36.8,30.21,NE,45,1.2,2.3,39,0.00,SCT,,0.00,942.2,WeatherDisplay:10.37,2013-03-29 20:38:00,
2013-03-29 15:43:00,63.0,37.0,30.20,NE,55,2.1,8.1,38,0.00,SCT,,0.00,928.2,WeatherDisplay:10.37,2013-03-29 20:43:00,
2013-03-29 15:48:00,63.4,37.3,30.20,South,172,1.8,5.8,38,0.00,SCT,,0.00,912.8,WeatherDisplay:10.37,2013-03-29 20:48:00,
2013-03-29 15:53:00,63.3,35.9,30.20,ESE,115,0.9,5.8,36,0.00,SCT,,0.00,896.0,WeatherDisplay:10.37,2013-03-29 20:53:00,
2013-03-29 15:59:00,62.5,36.5,30.20,East,80,4.0,5.8,38,0.00,SCT,,0.00,873.6,WeatherDisplay:10.37,2013-03-29 20:59:00,
2013-03-29 16:04:00,63.1,37.1,30.19,SE,133,2.3,4.6,38,0.00,SCT,,0.00,772.8,WeatherDisplay:10.37,2013-03-29 21:04:00,
2013-03-29 16:09:00,62.9,36.2,30.19,SSE,163,2.5,7.0,37,0.00,SCT,,0.00,595.0,WeatherDisplay:10.37,2013-03-29 21:09:00,
2013-03-29 16:14:00,62.8,36.8,30.19,East,83,0.7,5.8,38,0.00,SCT,,0.00,558.6,WeatherDisplay:10.37,2013-03-29 21:14:00,
2013-03-29 16:20:00,62.9,36.2,30.18,SE,128,0.9,3.5,37,0.00,SCT,,0.00,578.2,WeatherDisplay:10.37,2013-03-29 21:20:00,
2013-03-29 16:25:00,63.1,35.7,30.19,ESE,103,1.3,3.5,36,0.00,SCT,,0.00,450.8,WeatherDisplay:10.37,2013-03-29 21:25:00,
2013-03-29 16:30:00,62.7,36.0,30.19,SSW,196,0.8,3.0,37,0.00,SCT,,0.00,399.0,WeatherDisplay:10.37,2013-03-29 21:30:00,
2013-03-29 16:35:00,63.1,37.1,30.19,ESE,116,1.5,3.5,38,0.00,SCT,,0.00,435.4,WeatherDisplay:10.37,2013-03-29 21:35:00,
2013-03-29 16:41:00,63.0,35.6,30.18,South,171,0.8,5.0,36,0.00,SCT,,0.00,371.0,WeatherDisplay:10.37,2013-03-29 21:41:00,
2013-03-29 16:46:00,63.1,36.4,30.18,ESE,114,3.3,8.1,37,0.00,SCT,,0.00,548.8,WeatherDisplay:10.37,2013-03-29 21:46:00,
2013-03-29 16:51:00,62.8,36.1,30.18,SE,124,1.4,4.0,37,0.00,SCT,,0.00,441.0,WeatherDisplay:10.37,2013-03-29 21:51:00,
2013-03-29 16:57:00,62.9,35.5,30.18,ESE,116,2.0,9.0,36,0.00,SCT,SCT,0.00,509.6,WeatherDisplay:10.37,2013-03-29 21:57:00,
2013-03-29 17:02:00,62.9,36.9,30.18,ESE,111,2.0,8.0,38,0.00,SCT,SCT,0.00,522.2,WeatherDisplay:10.37,2013-03-29 22:02:00,
2013-03-29 17:07:00,62.8,36.8,30.18,ESE,106,0.7,4.6,38,0.00,SCT,,0.00,477.4,WeatherDisplay:10.37,2013-03-29 22:07:00,
2013-03-29 17:12:00,63.0,37.0,30.18,ESE,111,1.0,4.0,38,0.00,SCT,SCT,0.00,361.2,WeatherDisplay:10.37,2013-03-29 22:12:00,
2013-03-29 17:17:00,63.2,36.5,30.18,SE,140,1.0,4.0,37,0.00,SCT,SCT,0.00,315.0,WeatherDisplay:10.37,2013-03-29 22:17:00,
2013-03-29 17:22:00,62.8,36.1,30.18,South,169,0.7,3.5,37,0.00,SCT,,0.00,285.6,WeatherDisplay:10.37,2013-03-29 22:22:00,
2013-03-29 17:27:00,62.9,36.2,30.18,South,182,0.3,2.3,37,0.00,SCT,,0.00,305.2,WeatherDisplay:10.37,2013-03-29 22:27:00,
2013-03-29 17:32:00,62.7,36.7,30.18,SE,133,0.9,4.6,38,0.00,SCT,,0.00,221.2,WeatherDisplay:10.37,2013-03-29 22:32:00,
2013-03-29 17:38:00,62.7,35.3,30.17,East,84,3.9,6.9,36,0.00,SCT,,0.00,194.6,WeatherDisplay:10.37,2013-03-29 22:38:00,
2013-03-29 17:43:00,62.6,35.9,30.18,SE,136,2.6,6.9,37,0.00,SCT,,0.00,201.6,WeatherDisplay:10.37,2013-03-29 22:43:00,
2013-03-29 17:48:00,62.5,35.2,30.18,ESE,120,3.3,6.9,36,0.00,SCT,,0.00,158.2,WeatherDisplay:10.37,2013-03-29 22:48:00,
2013-03-29 17:53:00,62.4,35.8,30.18,ESE,106,0.1,1.2,37,0.00,SCT,,0.00,145.6,WeatherDisplay:10.37,2013-03-29 22:53:00,
2013-03-29 17:59:00,62.3,36.4,30.18,SE,137,2.2,4.6,38,0.00,SCT,,0.00,117.6,WeatherDisplay:10.37,2013-03-29 22:59:00,
2013-03-29 18:04:00,62.1,36.2,30.18,ENE,78,1.7,6.0,38,0.00,SCT,,0.00,135.8,WeatherDisplay:10.37,2013-03-29 23:04:00,
2013-03-29 18:09:00,61.9,36.0,30.18,ESE,109,0.6,3.5,38,0.00,SCT,,0.00,98.0,WeatherDisplay:10.37,2013-03-29 23:09:00,
2013-03-29 18:14:00,61.8,35.9,30.18,ESE,112,1.9,3.5,38,0.00,SCT,,0.00,100.8,WeatherDisplay:10.37,2013-03-29 23:14:00,
2013-03-29 18:20:00,61.8,35.9,30.17,ESE,112,1.7,3.5,38,0.00,SCT,,0.00,110.6,WeatherDisplay:10.37,2013-03-29 23:20:00,
2013-03-29 18:25:00,61.7,35.8,30.18,South,169,0.0,2.3,38,0.00,SCT,,0.00,81.2,WeatherDisplay:10.37,2013-03-29 23:25:00,
2013-03-29 18:30:00,61.6,35.7,30.18,SE,143,0.6,3.0,38,0.00,SCT,,0.00,56.0,WeatherDisplay:10.37,2013-03-29 23:30:00,
2013-03-29 18:35:00,61.4,36.2,30.17,South,189,0.2,3.5,39,0.00,SCT,,0.00,51.8,WeatherDisplay:10.37,2013-03-29 23:35:00,
2013-03-29 18:41:00,61.1,35.9,30.17,ESE,111,0.0,2.3,39,0.00,SCT,,0.00,46.2,WeatherDisplay:10.37,2013-03-29 23:41:00,
2013-03-29 18:46:00,60.9,35.1,30.17,ESE,112,2.3,5.8,38,0.00,SCT,,0.00,42.0,WeatherDisplay:10.37,2013-03-29 23:46:00,
2013-03-29 18:52:00,60.7,34.9,30.17,ESE,105,0.7,4.6,38,0.00,SCT,,0.00,42.0,WeatherDisplay:10.37,2013-03-29 23:52:00,
2013-03-29 18:57:00,60.5,35.4,30.17,ESE,116,1.0,4.0,39,0.00,SCT,SCT,0.00,36.4,WeatherDisplay:10.37,2013-03-29 23:57:00,
2013-03-29 19:02:00,60.2,35.1,30.17,SSE,156,0.0,6.0,39,0.00,SCT,SCT,0.00,35.0,WeatherDisplay:10.37,2013-03-30 00:02:00,
2013-03-29 19:07:00,60.0,35.0,30.17,ESE,113,2.2,4.0,39,0.00,SCT,,0.00,26.6,WeatherDisplay:10.37,2013-03-30 00:07:00,
2013-03-29 19:12:00,59.8,35.4,30.17,ESE,109,0.0,0.0,40,0.00,SCT,,0.00,22.4,WeatherDisplay:10.37,2013-03-30 00:12:00,
2013-03-29 19:17:00,59.5,35.1,30.17,ESE,109,0.0,0.0,40,0.00,SCT,,0.00,19.6,WeatherDisplay:10.37,2013-03-30 00:17:00,
2013-03-29 19:22:00,59.1,34.8,30.17,ESE,109,0.7,3.0,40,0.00,SCT,,0.00,15.4,WeatherDisplay:10.37,2013-03-30 00:22:00,
2013-03-29 19:28:00,58.8,35.1,30.17,South,172,0.0,0.0,41,0.00,SCT,,0.00,9.8,WeatherDisplay:10.37,2013-03-30 00:28:00,
2013-03-29 19:33:00,58.5,35.5,30.17,South,172,0.0,0.0,42,0.00,SCT,,0.00,0.0,WeatherDisplay:10.37,2013-03-30 00:33:00,
2013-03-29 19:38:00,58.1,35.1,30.16,ESE,121,0.9,2.3,42,0.00,SCT,,0.00,0.0,WeatherDisplay:10.37,2013-03-30 00:38:00,
2013-03-29 19:43:00,57.8,35.4,30.17,ESE,121,0.0,0.0,43,0.00,SCT,,0.00,0.0,WeatherDisplay:10.37,2013-03-30 00:43:00,
2013-03-29 19:49:00,57.3,35.6,30.16,ESE,121,0.0,0.0,44,0.00,SCT,,0.00,0.0,WeatherDisplay:10.37,2013-03-30 00:49:00,
2013-03-29 19:54:00,56.7,35.0,30.16,ESE,121,0.0,1.2,44,0.00,SCT,,0.00,0.0,WeatherDisplay:10.37,2013-03-30 00:54:00,
2013-03-29 19:59:00,56.1,35.0,30.17,SE,131,0.0,0.0,45,0.00,SCT,,0.00,0.0,WeatherDisplay:10.37,2013-03-30 00:59:00,
2013-03-29 20:04:00,55.5,35.0,30.16,SE,131,0.1,0.0,46,0.00,SCT,,0.00,0.0,WeatherDisplay:10.37,2013-03-30 01:04:00,
2013-03-29 20:10:00,55.3,35.4,30.17,SE,130,0.0,0.0,47,0.00,SCT,,0.00,0.0,WeatherDisplay:10.37,2013-03-30 01:10:00,
2013-03-29 20:15:00,55.0,35.1,30.17,SE,130,0.0,0.0,47,0.00,SCT,,0.00,0.0,WeatherDisplay:10.37,2013-03-30 01:15:00,
2013-03-29 20:20:00,54.8,34.9,30.17,SE,130,0.0,0.0,47,0.00,SCT,,0.00,0.0,WeatherDisplay:10.37,2013-03-30 01:20:00,
2013-03-29 20:25:00,54.6,35.3,30.17,SE,130,0.0,0.0,48,0.00,SCT,,0.00,0.0,WeatherDisplay:10.37,2013-03-30 01:25:00,
2013-03-29 20:31:00,54.2,34.9,30.17,SE,130,0.0,0.0,48,0.00,SCT,,0.00,0.0,WeatherDisplay:10.37,2013-03-30 01:31:00,
2013-03-29 20:36:00,54.1,34.8,30.17,SE,130,0.0,2.3,48,0.00,SCT,,0.00,0.0,WeatherDisplay:10.37,2013-03-30 01:36:00,
2013-03-29 20:41:00,54.2,34.9,30.17,SE,130,0.0,0.0,48,0.00,SCT,,0.00,0.0,WeatherDisplay:10.37,2013-03-30 01:41:00,
2013-03-29 20:46:00,54.3,35.0,30.17,SE,130,1.4,3.5,48,0.00,SCT,,0.00,0.0,WeatherDisplay:10.37,2013-03-30 01:46:00,
2013-03-29 20:51:00,54.8,35.5,30.17,ESE,111,1.0,3.0,48,0.00,SCT,,0.00,0.0,WeatherDisplay:10.37,2013-03-30 01:51:00,
2013-03-29 20:57:00,55.1,34.7,30.17,ESE,119,0.0,2.3,46,0.00,SCT,,0.00,0.0,WeatherDisplay:10.37,2013-03-30 01:57:00,
2013-03-29 21:02:00,55.2,35.3,30.17,ESE,117,0.0,3.5,47,0.00,SCT,,0.00,0.0,WeatherDisplay:10.37,2013-03-30 02:02:00,
2013-03-29 21:07:00,55.0,35.1,30.17,ESE,117,0.0,1.2,47,0.00,SCT,,0.00,0.0,WeatherDisplay:10.37,2013-03-30 02:07:00,
2013-03-29 21:12:00,54.9,34.5,30.17,ESE,117,3.5,9.2,46,0.00,SCT,,0.00,0.0,WeatherDisplay:10.37,2013-03-30 02:12:00,
2013-03-29 21:17:00,55.0,35.1,30.17,SE,125,0.8,3.0,47,0.00,SCT,,0.00,0.0,WeatherDisplay:10.37,2013-03-30 02:17:00,
2013-03-29 21:22:00,54.9,35.0,30.17,ESE,105,1.1,3.5,47,0.00,SCT,,0.00,0.0,WeatherDisplay:10.37,2013-03-30 02:22:00,
2013-03-29 21:28:00,54.9,35.0,30.17,SE,128,2.7,4.0,47,0.00,SCT,,0.00,0.0,WeatherDisplay:10.37,2013-03-30 02:28:00,
2013-03-29 21:33:00,54.8,34.9,30.17,ESE,121,0.1,1.2,47,0.00,SCT,,0.00,0.0,WeatherDisplay:10.37,2013-03-30 02:33:00,
2013-03-29 21:38:00,54.8,35.5,30.17,ESE,117,2.2,6.0,48,0.00,SCT,,0.00,0.0,WeatherDisplay:10.37,2013-03-30 02:38:00,
2013-03-29 21:44:00,54.6,35.3,30.16,ESE,122,1.8,3.5,48,0.00,SCT,,0.00,0.0,WeatherDisplay:10.37,2013-03-30 02:44:00,
2013-03-29 21:49:00,54.5,35.7,30.17,ESE,110,1.0,2.3,49,0.00,SCT,,0.00,0.0,WeatherDisplay:10.37,2013-03-30 02:49:00,
2013-03-29 21:54:00,54.4,35.1,30.16,SE,137,0.8,3.5,48,0.00,SCT,,0.00,0.0,WeatherDisplay:10.37,2013-03-30 02:54:00,
2013-03-29 21:59:00,54.3,35.5,30.16,ESE,123,0.5,2.3,49,0.00,SCT,,0.00,0.0,WeatherDisplay:10.37,2013-03-30 02:59:00,
2013-03-29 22:04:00,54.2,35.4,30.16,SE,125,3.3,6.9,49,0.00,SCT,,0.00,0.0,WeatherDisplay:10.37,2013-03-30 03:04:00,
2013-03-29 22:09:00,54.2,35.4,30.16,ESE,118,2.4,8.1,49,0.00,SCT,,0.00,0.0,WeatherDisplay:10.37,2013-03-30 03:09:00,
2013-03-29 22:15:00,54.0,35.8,30.16,ESE,115,3.1,8.1,50,0.00,SCT,,0.00,0.0,WeatherDisplay:10.37,2013-03-30 03:15:00,
2013-03-29 22:20:00,53.9,35.7,30.16,East,98,0.7,3.5,50,0.00,SCT,,0.00,0.0,WeatherDisplay:10.37,2013-03-30 03:20:00,
2013-03-29 22:25:00,53.6,35.4,30.16,SSE,162,3.9,4.0,50,0.00,SCT,,0.00,0.0,WeatherDisplay:10.37,2013-03-30 03:25:00,
2013-03-29 22:30:00,53.5,35.8,30.16,SE,124,1.3,3.5,51,0.00,SCT,,0.00,0.0,WeatherDisplay:10.37,2013-03-30 03:30:00,
2013-03-29 22:36:00,53.4,35.7,30.16,ESE,106,2.3,5.8,51,0.00,SCT,,0.00,0.0,WeatherDisplay:10.37,2013-03-30 03:36:00,
2013-03-29 22:41:00,53.1,35.9,30.16,ESE,109,0.0,3.5,52,0.00,SCT,,0.00,0.0,WeatherDisplay:10.37,2013-03-30 03:41:00,
2013-03-29 22:47:00,53.0,35.8,30.16,ESE,111,0.0,0.0,52,0.00,SCT,,0.00,0.0,WeatherDisplay:10.37,2013-03-30 03:47:00,
2013-03-29 22:52:00,52.9,36.2,30.16,ESE,113,3.0,8.0,53,0.00,SCT,SCT,0.00,0.0,WeatherDisplay:10.37,2013-03-30 03:52:00,
2013-03-29 22:57:00,52.8,36.1,30.16,ESE,114,2.0,8.0,53,0.00,SCT,SCT,0.00,0.0,WeatherDisplay:10.37,2013-03-30 03:57:00,
2013-03-29 23:00:00,52.8,36.1,30.16,ESE,114,2.8,10.4,53,0.00,SCT,,0.00,0.0,WeatherDisplay:10.37,2013-03-30 04:00:00,
2013-03-29 23:01:00,52.8,36.1,30.15,ESE,116,1.2,3.5,53,0.00,SCT,,0.00,0.0,WeatherDisplay:10.37,2013-03-30 04:01:00,
2013-03-29 23:02:00,52.8,36.1,30.15,East,79,1.9,3.5,53,0.00,SCT,,0.00,0.0,WeatherDisplay:10.37,2013-03-30 04:02:00,
2013-03-29 23:07:00,52.6,35.9,30.15,SE,130,4.8,6.9,53,0.00,SCT,,0.00,0.0,WeatherDisplay:10.37,2013-03-30 04:07:00,
2013-03-29 23:12:00,52.4,36.2,30.15,SE,133,3.4,5.8,54,0.00,SCT,,0.00,0.0,WeatherDisplay:10.37,2013-03-30 04:12:00,
2013-03-29 23:17:00,52.2,36.5,30.15,East,84,2.6,5.8,55,0.00,SCT,,0.00,0.0,WeatherDisplay:10.37,2013-03-30 04:17:00,
2013-03-29 23:23:00,52.2,36.5,30.15,ESE,103,1.4,3.5,55,0.00,SCT,,0.00,0.0,WeatherDisplay:10.37,2013-03-30 04:23:00,
2013-03-29 23:28:00,52.1,36.4,30.16,SE,128,1.6,3.5,55,0.00,SCT,,0.00,0.0,WeatherDisplay:10.37,2013-03-30 04:28:00,
2013-03-29 23:33:00,51.9,36.7,30.16,SSW,201,0.4,2.3,56,0.00,SCT,,0.00,0.0,WeatherDisplay:10.37,2013-03-30 04:33:00,
2013-03-29 23:38:00,51.7,36.5,30.16,ESE,119,0.3,2.3,56,0.00,SCT,,0.00,0.0,WeatherDisplay:10.37,2013-03-30 04:38:00,
2013-03-29 23:44:00,51.5,36.8,30.15,ESE,119,0.4,2.3,57,0.00,SCT,,0.00,0.0,WeatherDisplay:10.37,2013-03-30 04:44:00,
2013-03-29 23:49:00,51.2,36.5,30.15,SE,141,0.0,0.0,57,0.00,SCT,,0.00,0.0,WeatherDisplay:10.37,2013-03-30 04:49:00,
2013-03-29 23:54:00,50.9,36.6,30.14,ESE,111,0.0,1.2,58,0.00,SCT,,0.00,0.0,WeatherDisplay:10.37,2013-03-30 04:54:00,
2013-03-29 23:59:00,50.7,36.9,30.14,SE,131,0.0,2.3,59,0.00,SCT,,0.00,0.0,WeatherDisplay:10.37,2013-03-30 04:59:00,